Location: Kile Knob Observatory
(38.6083°N, 79.4792°W)
Time: 06:55:53
(UTC-04:00)

Tiangong 2 - Pass Details

Date: 26 May 2019
Orbit: 376 x 389 km, 42.8° (Epoch: 20 June)

Event Time Altitude Azimuth Distance (km) Brightness Sun altitude
Rises 21:56:12 0° 288° (WNW) 2,234 6.2 -14.2°
Reaches altitude 10° 21:58:20 10° 296° (WNW) 1,381 5.1 -14.5°
Maximum altitude 22:01:18 41° 9° (N) 561 2.1 -14.9°
Enters shadow 22:03:15 18° 73° (ENE) 1,000 2.9 -15.2°
